Regional Weather Roundup
Issued by NWS

Home | Current Version | Previous Version | Graphics & Text | Print | Product List | Glossary On
Versions: 1 2 3 4 5 6 7 8 9 10 11 12 13 14 15 16 17 18 19 20 21 22 23 24 25 26 27 28 29 30 31 32 33 34 35 36 37 38 39 40 41 42 43 44 45 46 47 48 49 50
000
ASUS43 KFSD 190210
RWRSD

WEATHER ROUNDUP FOR SOUTH DAKOTA
NATIONAL WEATHER SERVICE SIOUX FALLS SD
900 PM CDT WED APR 18 2018

NOTE: "FAIR" INDICATES FEW OR NO CLOUDS BELOW 12,000 FEET WITH NO
SIGNIFICANT WEATHER AND/OR OBSTRUCTIONS TO VISIBILITY.


SDZ001>005-009-010-012>017-190300-
NORTHWEST AND NORTH CENTRAL SOUTH DAKOTA

CITY           SKY/WX    TMP DP  RH WIND       PRES   REMARKS
BUFFALO          N/A     47  31  53 NE7       30.17R
FAITH            N/A     42  36  79 E6        30.23R
MOBRIDGE       PTCLDY    41  27  57 NE10      30.23R
$$

SDZ012>016-024>037-041>051-057-063-072>074-190300-
SOUTHWEST AND SOUTH CENTRAL SOUTH DAKOTA

CITY           SKY/WX    TMP DP  RH WIND       PRES   REMARKS
RAPID CTY ARPT PTCLDY    41  28  60 N8        30.22R
PIERRE         CLEAR     35  32  88 NW8       30.23R WCI  29
CUSTER         CLEAR     39  17  41 N3        30.23R
ELLSWORTH AFB  PTCLDY    47  28  47 N9        30.21R
PHILIP         CLEAR     40  35  83 E6        30.24R
PINE RIDGE     CLOUDY    48  26  42 N3        30.22R
SPEARFISH      FAIR      39  27  60 VRB3      30.24R
WINNER         FAIR      37  32  82 W9        30.24R
$$

SDZ004>011-016>023-039-040-190300-
NORTHEAST SOUTH DAKOTA

CITY           SKY/WX    TMP DP  RH WIND       PRES   REMARKS
ABERDEEN       CLOUDY    41  31  67 N10       30.24R
WATERTOWN      CLOUDY    35  29  78 NW6       30.19R
BROOKINGS      CLOUDY    36  27  69 N6        30.19R
SISSETON         N/A     41  31  67 CALM      30.20R
$$

SDZ017-020-022-023-036>040-048>070-190300-
SOUTHEAST SOUTH DAKOTA

CITY           SKY/WX    TMP DP  RH WIND       PRES   REMARKS
SIOUX FALLS    CLOUDY    33  30  88 W5        30.19R WCI  29
HURON          CLOUDY    40  32  73 N9        30.22R
CHAMBERLAIN    PTCLDY    41  32  70 N6        30.24R
MITCHELL       CLOUDY    37  32  82 NW8       30.22R
YANKTON        CLOUDY    36  33  89 N7        30.22R
$$

ABBREVIATIONS USED IN REMARKS
   TC - TEMPERATURE IN CELSIUS
  WCI - WIND CHILL INDEX
   HX - HEAT INDEX
  VSB - VISIBILITY




USA.gov is the U.S. government's official web portal to all federal, state and local government web resources and services.